Location: Medlow Airstrip Trail, Medlow Bath NSW 2780, Australia
(33.6682°S, 150.3233°E)
Time: 23:35:16
(UTC+11:00)

Explorer 11/Cluster Stage 4 - Pass Details

Date: 23 September 2019
Orbit: 467 x 1259 km, 28.8° (Epoch: 19 October)

Event Time Altitude Azimuth Distance (km) Brightness Sun altitude
Rises 14:46:58 0° 272° (W) 3,859 10.9 36.8°
Reaches altitude 10° 14:50:14 10° 286° (WNW) 3,013 10.8 36.2°
Maximum altitude 14:55:55 23° 334° (NNW) 2,326 10.1 35.2°
Drops below altitude 10° 15:01:58 10° 22° (NNE) 3,222 9.9 34.1°
Sets 15:05:37 0° 35° (NE) 4,191 10.2 33.4°
